Hourly Data Report for July 02, 2021

CAPE RACE (AUT)
NEWFOUNDLAND
Current Station Operator: ECCC - MSC

46°39'36.000" N
53°04'35.000" W
26.50 m
8401000
71800
WRA

Download Data

Hourly Data (July 2021)
Hourly Data Report for July 2, 2021
TIME
LST
Temp Definition
°C
Dew Point Definition
°C
Rel Hum Definition
%
Precip. Amount Definition
mm

Wind Dir Definition
10's deg

Wind Spd Definition
km/h
Visibility Definition
km
Stn Press Definition
kPa
Hmdx Definition


Wind Chill Definition


Weather Definition


00:30 8.0 LegendMM LegendMM 0.0 4 33   100.86     LegendNANA
01:30 8.1 LegendMM LegendMM 0.0 4 32   100.84     LegendNANA
02:30 8.2 LegendMM LegendMM 0.0 4 34   100.89     LegendNANA
03:30 8.0 LegendMM LegendMM 0.0 4 36   100.92     LegendNANA
04:30 8.3 LegendMM LegendMM 0.0 4 34   100.99     LegendNANA
05:30 8.4 LegendMM LegendMM 0.0 4 33   101.04     LegendNANA
06:30 8.6 LegendMM LegendMM 0.0 4 32   101.08     LegendNANA
07:30 9.0 LegendMM LegendMM 0.0 4 27   101.16     LegendNANA
08:30 9.0 LegendMM LegendMM 0.0 4 30   101.24     LegendNANA
09:30 8.9 LegendMM LegendMM 0.0 4 33   101.29     LegendNANA
10:30 9.0 LegendMM LegendMM 0.0 4 37   101.28     LegendNANA
11:30 9.3 LegendMM LegendMM 0.0 4 36   101.28     LegendNANA
12:30 9.2 LegendMM LegendMM 0.0 4 35   101.30     LegendNANA
13:30 9.3 LegendMM LegendMM 0.0 4 32   101.33     LegendNANA
14:30 8.6 LegendMM LegendMM 0.0 4 36   101.34     LegendNANA
15:30 8.7 LegendMM LegendMM 0.0 4 33   101.34     LegendNANA
16:30 8.6 LegendMM LegendMM 0.0 5 27   101.32     LegendNANA
17:30 8.4 LegendMM LegendMM 0.0 5 26   101.29     LegendNANA
18:30 8.4 LegendMM LegendMM 0.3 5 24   101.23     LegendNANA
19:30 8.3 LegendMM LegendMM 1.1 6 25   101.24     LegendNANA
20:30 8.4 LegendMM LegendMM 1.2 6 27   101.25     LegendNANA
21:30 8.4 LegendMM LegendMM 1.7 4 25   101.32     LegendNANA
22:30 8.4 LegendMM LegendMM 2.7 5 24   101.28     LegendNANA
23:30 8.4 LegendMM LegendMM 1.4 4 25   101.22     LegendNANA

Notes on Data Quality.

Legend

  • E = Estimated
  • M = Missing
  • NA = Not Available*
  • [empty] = Indicates an unobserved value
Date modified: